Location: Big Spring State Park
(32.2296°N, 101.4897°W)
Time: 18:35:54
(UTC-06:00)

OTV 5 (USA 277) - Visible Passes

Search period start: 21 January 2018 00:00
Search period end: 31 January 2018 00:00
Orbit: 404 x 417 km, 43.0° (Epoch: 07 September)

Date Brightness Start Highest point End Pass type
(mag) Time Alt. Az. Time Alt. Az. Time Alt. Az.
21 Jan ? 20:03:53 10° WSW 20:06:10 35° WNW 20:06:10 35° WNW visible
22 Jan ? 19:12:42 10° WSW 19:16:04 81° NNW 19:17:44 27° NE visible
23 Jan ? 19:59:43 10° WNW 20:02:01 23° NW 20:02:01 23° NW visible
24 Jan ? 19:08:15 10° W 19:11:19 32° NNW 19:13:29 16° NNE visible
25 Jan ? 19:55:54 10° NW 19:57:40 15° NNW 19:57:40 15° NNW visible
26 Jan ? 19:04:18 10° WNW 19:06:46 19° NNW 19:09:03 11° NNE visible
27 Jan ? 19:51:59 10° NNW 19:53:12 13° N 19:53:12 13° N visible
28 Jan ? 19:00:30 10° NW 19:02:21 14° N 19:04:12 10° NNE visible
29 Jan ? 19:47:25 10° NNW 19:48:43 14° N 19:48:43 14° N visible
30 Jan ? 18:56:18 10° NNW 18:58:00 13° N 18:59:43 10° NNE visible
